Location: Lussas
(44.6119°N, 4.4726°E)
Time: 14:35:43
(UTC+00:00)

ISS - Visible Passes

Search period start: 25 February 2021 00:00
Search period end: 07 March 2021 00:00
Orbit: 417 x 422 km, 51.6° (Epoch: 26 February)

Date Brightness Start Highest point End Pass type
(mag) Time Alt. Az. Time Alt. Az. Time Alt. Az.
25 Feb -1.0 03:50:13 19° E 03:50:13 19° E 03:51:27 10° ENE visible
25 Feb -3.1 05:23:12 20° W 05:25:06 40° NNW 05:28:19 10° NE visible
26 Feb -3.5 04:37:43 55° NNW 04:37:43 55° NNW 04:40:54 10° NE visible
27 Feb -1.2 03:52:10 22° ENE 03:52:10 22° ENE 03:53:28 10° ENE visible
27 Feb -2.3 05:25:08 15° WNW 05:27:15 27° N 05:30:12 10° NE visible
28 Feb -2.6 04:39:31 32° NNW 04:39:39 32° NNW 04:42:43 10° NE visible
01 Mar -1.3 03:53:52 21° NE 03:53:52 21° NE 03:55:16 10° NE visible
01 Mar -2.0 05:26:49 11° NW 05:29:27 24° N 05:32:15 10° NE visible
02 Mar -2.2 04:41:08 23° NNW 04:41:47 24° N 04:44:37 10° NE visible
03 Mar -1.4 03:55:25 21° NNE 03:55:25 21° NNE 03:57:03 10° NE visible
03 Mar -2.1 05:28:42 10° NW 05:31:37 26° N 05:34:32 10° ENE visible
04 Mar -1.9 04:42:40 19° NNW 04:43:56 24° N 04:46:45 10° ENE visible
05 Mar -1.6 03:56:57 22° NNE 03:56:57 22° NNE 03:59:02 10° NE visible
05 Mar -2.6 05:30:28 10° NW 05:33:38 38° NNE 05:36:49 10° E visible
06 Mar -0.2 03:11:15 11° NE 03:11:15 11° NE 03:11:22 10° NE visible
06 Mar -2.2 04:44:12 19° NW 04:45:59 30° NNE 04:49:01 10° E visible
